Location: Izdebno
(52.6670°N, 16.2170°E)
Time: 03:43:25
(UTC+02:00)

Transit 2A - Pass Details

Date: 03 March 2024
Orbit: 596 x 956 km, 66.7° (Epoch: 21 April)

Event Time Altitude Azimuth Distance (km) Brightness Sun altitude
Rises 00:14:22 0° 319° (NW) 2,929 - -44.0°
Reaches altitude 10° 00:16:57 10° 333° (NNW) 2,061 - -44.0°
Maximum altitude 00:20:45 24° 29° (NNE) 1,400 - -44.0°
Drops below altitude 10° 00:24:50 10° 83° (E) 2,221 - -43.9°
Sets 00:27:44 0° 97° (E) 3,211 - -43.9°
